sat.trackr.live / text

‹ back to catalog

STARLINK-4416

NORAD 53212 · 2022-084Z

PAYLOAD ACTIVE UNKNOWN

§ Identity

Operator
Country
US
Launch date
2022-07-22
Launch site
AFWTR
Launch vehicle
Mass (kg)
RCS (m²)

Purposes: comms

External: N2YO · Heavens-Above · Gunter

§ Orbital elements

Epoch: 2026-09-19T09:16:01.428096Z

Period
93.91 min
Inclination
97.2823°
Eccentricity
0.0001057
Mean motion
15.33435880 rev/d
Perigee alt
464.8 km
Apogee alt
466.3 km
Semi-major
6,843.7 km
B*
2.8020e-5
RAAN
318.1869°
Arg perigee
68.1346°
Mean anomaly
292.0009°
Rev number
22,857

§ Raw data

STARLINK-44161 53212U 22084Z   26262.38612764  .00000829  00000+0  28020-4 0  99982 53212  97.2823 318.1869 0001057  68.1346 292.0009 15.33435880228579

JSON: /api/v1/satellites/53212 · /tle

For live sub-satellite position, see the globe view (requires WebGL).

§ Visibility from observer

Set your observer location to see the next 7 days of passes ≥ 10°. The values pass through the URL so the page stays shareable.

No JS? Fill the form by hand. The geolocation button needs JavaScript.